DW7807 Weather Reports


time (UTC)temp
F
wind
direction
speed
knots
gust
knots
rain 1hr
in
rain 24hr
in
rain mn
in
humidity
%
barometer
mb
20260510021518 58 227 0.0 0.0 0.00 0.07 0.07 71 1011.7
20260510020008 58 227 0.0 0.0 0.00 0.07 0.07 70 1011.7
20260510014508 59 227 0.0 0.0 0.00 0.07 0.07 70 1011.3
20260510013008 59 227 0.0 0.0 0.00 0.07 0.07 69 1011.2
20260510011509 59 227 0.0 0.0 0.00 0.07 0.07 69 1011.0
20260510010007 59 227 0.0 0.0 0.00 0.07 0.07 68 1010.8
20260510004505 60 227 0.0 0.0 0.00 0.07 0.07 68 1010.6
20260510003005 60 227 0.0 0.0 0.00 0.07 0.07 66 1010.4
20260510001505 62 226 0.0 0.0 0.00 0.07 0.07 64 1010.3
20260510000007 63 242 0.0 0.0 0.00 0.07 0.07 62 1010.0
20260509234515 64 230 0.0 2.6 0.00 0.07 0.07 62 1009.9
20260509233003 64 229 0.0 4.3 0.00 0.07 0.07 60 1009.8
20260509231604 64 220 0.9 7.8 0.00 0.07 0.07 61 1009.8
20260509230105 64 265 3.5 7.8 0.00 0.07 0.07 59 1009.9
20260509224603 64 229 3.5 8.7 0.00 0.07 0.07 59 1010.2
20260509223103 64 198 2.6 9.6 0.00 0.07 0.07 60 1010.3
20260509221658 64 259 1.7 9.6 0.00 0.07 0.07 60 1010.3
20260509220054 63 261 2.6 8.7 0.00 0.07 0.07 62 1010.4
20260509214553 62 273 3.5 9.6 0.00 0.07 0.07 61 1010.4
20260509213056 63 263 2.6 8.7 0.00 0.07 0.07 62 1010.4
20260509211552 63 261 5.2 9.6 0.00 0.07 0.07 61 1010.3
20260509210058 63 284 2.6 11.3 0.00 0.07 0.07 63 1010.1
20260509204552 63 278 3.5 8.7 0.00 0.07 0.07 63 1010.3
20260509203055 62 282 2.6 6.1 0.00 0.07 0.07 64 1010.3
20260509201546 62 280 1.7 7.0 0.00 0.07 0.07 63 1010.3
20260509200045 62 277 4.3 9.6 0.00 0.07 0.07 62 1010.4
20260509194543 62 253 1.7 7.0 0.00 0.07 0.07 67 1010.7
20260509193041 61 269 0.0 0.0 0.00 0.07 0.07 64 1010.7
20260509191538 60 268 1.7 8.7 0.00 0.07 0.07 65 1010.7
20260509190037 60 248 2.6 9.6 0.00 0.07 0.07 64 1010.8
20260509184544 59 232 0.0 0.0 0.00 0.07 0.07 67 1010.7
20260509183030 58 217 0.0 0.0 0.00 0.07 0.07 72 1010.7
20260509181528 58 219 0.0 0.0 0.00 0.07 0.07 75 1010.6
20260509180035 57 219 0.0 0.0 0.00 0.07 0.07 73 1010.8
20260509174529 57 218 0.0 0.0 0.00 0.07 0.07 74 1010.8
20260509173026 56 240 0.0 0.0 0.00 0.07 0.07 78 1010.8
20260509171524 56 238 0.0 0.0 0.00 0.07 0.07 76 1010.9
20260509170039 56 238 0.0 0.0 0.00 0.07 0.07 80 1011.1
20260509164523 55 238 0.0 0.0 0.00 0.07 0.07 81 1011.0
20260509163026 55 238 0.0 0.0 0.00 0.07 0.07 82 1010.8
20260509161520 54 238 0.0 0.0 0.00 0.07 0.07 82 1011.0
20260509160020 54 238 0.0 0.0 0.00 0.07 0.07 83 1011.1
20260509154519 53 238 0.0 0.0 0.00 0.07 0.07 83 1011.3
20260509153020 53 198 0.0 0.0 0.00 0.07 0.07 83 1011.2
20260509151516 52 198 0.0 0.0 0.00 0.07 0.07 83 1011.4
20260509150016 52 198 0.0 0.0 0.00 0.07 0.07 83 1011.5
20260509144518 52 196 0.0 0.0 0.00 0.07 0.07 83 1011.4
20260509143019 51 127 0.0 0.0 0.00 0.07 0.07 83 1011.4
20260509141533 51 127 0.0 0.0 0.00 0.07 0.07 83 1011.4
20260509140013 51 128 0.0 0.0 0.00 0.07 0.07 83 1011.5
20260509134525 50 123 0.0 0.0 0.00 0.07 0.07 83 1011.7
20260509133011 50 129 0.0 0.0 0.00 0.07 0.07 83 1011.7
20260509131511 50 18 0.0 0.0 0.01 0.07 0.07 83 1011.8
20260509130010 50 18 0.0 0.0 0.02 0.07 0.07 83 1011.7
20260509124514 49 18 0.0 0.0 0.02 0.07 0.07 83 1011.9
20260509123013 49 18 0.0 0.0 0.03 0.07 0.07 83 1011.9
20260509121509 48 18 0.0 0.0 0.02 0.06 0.06 83 1012.3
20260509120018 48 18 0.0 0.0 0.01 0.05 0.05 83 1012.4
20260509114508 48 18 0.0 0.0 0.01 0.05 0.05 83 1012.3
20260509113008 48 338 0.0 0.0 0.00 0.04 0.04 83 1012.2
20260509111512 49 334 0.0 0.0 0.01 0.04 0.04 83 1011.8
20260509110007 49 334 0.0 0.0 0.01 0.04 0.04 83 1011.8
20260509104507 48 334 0.0 0.0 0.01 0.04 0.04 83 1011.8
20260509103006 48 334 0.0 0.0 0.02 0.04 0.04 83 1011.7
20260509101513 49 334 0.0 0.0 0.02 0.03 0.03 83 1011.8
20260509100006 49 334 0.9 3.5 0.02 0.03 0.03 82 1012.1
20260509094501 50 334 2.6 7.0 0.02 0.03 0.03 81 1012.1
20260509093102 50 334 3.5 8.7 0.01 0.02 0.02 80 1012.3
20260509091555 51 305 4.3 8.7 0.00 0.01 0.01 79 1012.4
20260509090057 51 296 3.5 8.7 0.00 0.01 0.01 76 1012.5
20260509084551 53 291 3.5 7.0 0.00 0.01 0.01 71 1012.2
20260509083047 54 271 5.2 12.2 0.00 0.01 0.01 66 1012.7
20260509081551 55 288 7.8 13.0 0.01 0.01 0.01 63 1012.4
20260509080042 54 271 3.5 7.8 0.01 0.01 0.01 66 1012.1
20260509074541 53 248 2.6 6.1 0.01 0.01 0.01 67 1012.0
20260509073046 53 245 0.0 5.2 0.01 0.01 0.01 68 1011.8
20260509071546 54 246 0.0 0.0 0.00 0.00 0.00 64 1011.9
20260509070042 54 241 0.0 0.0 0.00 0.00 0.00 59 1012.0
20260509064534 55 241 0.0 0.0 0.00 0.00 0.00 58 1011.8
20260509063055 54 241 0.0 0.0 0.00 0.00 0.00 58 1011.6
20260509061550 54 241 0.0 0.0 0.00 0.00 0.00 58 1011.7
20260509060048 54 241 0.0 0.0 0.00 0.00 0.00 58 1012.0
20260509054529 55 241 0.0 0.0 0.00 0.00 0.00 58 1011.8
20260509053025 56 241 0.0 0.0 0.00 0.00 0.00 56 1012.2
20260509051522 57 241 0.0 0.0 0.00 0.00 0.00 53 1012.3
20260509050021 57 242 0.0 0.0 0.00 0.00 0.00 51 1012.5
20260509044523 57 241 0.0 0.0 0.00 0.00 0.00 52 1012.6
20260509043016 57 241 0.0 0.0 0.00 0.00 0.00 52 1012.7
20260509041514 57 241 0.0 0.0 0.00 0.00 0.00 51 1013.0
20260509040012 58 241 0.0 0.0 0.00 0.00 0.00 51 1013.0
20260509034512 58 241 0.0 0.0 0.00 0.00 0.00 50 1013.0
20260509033011 58 241 0.0 0.0 0.00 0.00 0.00 50 1013.1
20260509031510 58 241 0.0 0.0 0.00 0.00 0.00 51 1013.2
20260509030011 58 241 0.0 0.0 0.00 0.00 0.00 51 1013.3
20260509024515 57 241 0.0 0.0 0.00 0.00 0.00 51 1013.4